Location: Allens Landing
(37.8284°N, 89.7284°W)
Time: 13:49:03
(UTC+00:00)

Vanguard 1 - Visible Passes

Search period start: 07 November 2024 00:00
Search period end: 17 November 2024 00:00
Orbit: 649 x 3824 km, 34.3° (Epoch: 06 November)

Date Brightness Start Highest point End Pass type
(mag) Time Alt. Az. Time Alt. Az. Time Alt. Az.
07 Nov 13.4 06:43:34 17° E 06:43:34 17° E 06:46:41 10° E visible
07 Nov 12.0 08:56:12 60° S 08:56:12 60° S 09:13:46 10° ESE visible
07 Nov 12.8 11:08:48 18° W 11:18:51 35° SSW 11:37:20 10° SSE visible
08 Nov 13.3 07:02:18 21° ESE 07:02:18 21° ESE 07:06:52 10° ESE visible
08 Nov 12.0 09:14:55 54° SSW 09:14:55 54° SSW 09:33:24 10° SE visible
08 Nov 13.0 11:27:31 12° W 11:38:41 28° SW 11:55:18 10° SSE visible
09 Nov 13.1 07:21:02 25° ESE 07:21:02 25° ESE 07:27:00 10° ESE visible
09 Nov 12.1 09:33:39 46° SSW 09:34:41 46° SSW 09:52:43 10° SE visible
09 Nov 13.2 11:47:45 10° WSW 11:58:31 21° SW 12:12:29 10° S visible
10 Nov 12.9 07:39:46 29° ESE 07:39:46 29° ESE 07:46:59 10° ESE visible
10 Nov 12.3 09:52:23 37° SW 09:54:31 38° SSW 10:11:40 10° SSE visible
10 Nov 13.4 12:10:10 10° WSW 12:18:23 15° SW 12:28:13 10° S visible
11 Nov 12.8 07:58:32 31° SE 07:58:32 31° SE 08:06:49 10° ESE visible
11 Nov 12.5 10:11:09 29° SW 10:14:22 31° SSW 10:30:09 10° SSE visible
12 Nov 12.7 08:17:17 32° SSE 08:17:17 32° SSE 08:26:23 10° SE visible
12 Nov 12.8 10:29:55 21° SW 10:34:14 24° SSW 10:48:01 10° SSE visible
13 Nov 12.7 08:36:02 32° SSE 08:36:02 32° SSE 08:45:38 10° SE visible
13 Nov 13.0 10:48:39 14° WSW 10:54:07 18° SSW 11:04:57 10° S visible
14 Nov 12.8 08:54:47 29° S 08:54:47 29° S 09:04:29 10° SSE visible
14 Nov 13.3 11:09:09 10° SW 11:14:03 12° SW 11:19:43 10° SSW visible
15 Nov 12.9 09:13:31 24° S 09:13:31 24° S 09:22:51 10° SSE visible
16 Nov 11.5 00:08:21 10° SSE 00:08:31 10° SSE 00:08:41 10° SSE visible
16 Nov 13.6 07:19:36 11° SE 07:19:36 11° SE 07:19:52 10° SE visible
16 Nov 13.0 09:32:13 19° SSW 09:32:13 19° SSW 09:40:30 10° S visible
